Location: Alafon
(8.4500°N, 4.2333°E)
Time: 02:55:36
(UTC+00:00)

Vanguard 2 - Pass Details

Date: 12 August 2021
Orbit: 553 x 2937 km, 32.9° (Epoch: 27 September)

Event Time Altitude Azimuth Distance (km) Brightness Sun altitude
Rises 18:38:07 0° 216° (SW) 6,767 12.6 -9.8°
Reaches altitude 10° 18:43:43 10° 207° (SSW) 5,628 12.1 -11.1°
Maximum altitude 18:57:27 32° 151° (SSE) 3,445 10.4 -14.4°
Enters shadow 19:04:16 20° 107° (ESE) 3,617 10.3 -16.0°
Drops below altitude 10° 19:07:21 10° 93° (E) 4,076 - -16.7°
Sets 19:10:34 0° 83° (E) 4,740 - -17.4°
